Simultaneous Nadir Overpasses (SNOs) Predictions

Prediction of SNOs between GOES-17 and AQUA Satellite Orbit:

Table of predicted SNOs for the next 14.0 days since TLE Epoch: 9/2/2023
Index Date Time (GOES-17) GOES-17 Lat,Lon AQUA Lat,Lon Distance(km) Time Diff (sec)
1 09/02/2023 08:36:33 -0.00,-104.71 -0.73,-101.29 389.15 80
2 09/02/2023 20:57:21 0.00,-104.69 -0.33,-106.33 186.98 80
3 09/04/2023 20:45:33 -0.00,-104.69 0.40,-102.80 214.88 80
4 09/05/2023 09:06:14 0.00,-104.72 0.63,-107.81 351.06 80
5 09/07/2023 08:49:05 0.01,-104.72 -0.08,-104.27 50.89 80
6 09/09/2023 08:34:36 0.01,-104.73 -0.82,-100.74 453.07 80
7 09/09/2023 20:55:24 -0.02,-104.70 -0.27,-105.77 123.26 80
8 09/11/2023 20:43:35 -0.02,-104.70 0.51,-102.24 279.63 80
9 09/12/2023 09:04:15 0.02,-104.74 0.55,-107.25 285.59 80
10 09/14/2023 08:47:05 0.02,-104.74 -0.21,-103.71 117.76 80
11 09/14/2023 21:07:52 -0.02,-104.71 -0.91,-108.74 458.72 80
